Time,TemperatureF,DewpointF,PressureIn,WindDirection,WindDirectionDegrees,WindSpeedMPH,WindSpeedGustMPH,Humidity,HourlyPrecipIn,Conditions,Clouds,dailyrainin,SoftwareType,DateUTC
2013-07-02 00:04:00,64.0,-99.9,0.00,North,0,0.0,0.0,-999,0.00,,,-99.99,,2013-07-02 05:04:00,
2013-07-02 00:09:00,64.0,-99.9,0.00,North,0,0.0,0.0,-999,0.00,,,-99.99,,2013-07-02 05:09:00,
2013-07-02 00:14:00,64.0,-99.9,0.00,North,0,0.0,0.0,-999,0.00,,,-99.99,,2013-07-02 05:14:00,
2013-07-02 00:19:00,64.0,-99.9,0.00,North,0,0.0,0.0,-999,0.00,,,-99.99,,2013-07-02 05:19:00,
2013-07-02 00:24:00,64.0,-99.9,0.00,North,0,0.0,0.0,-999,0.00,,,-99.99,,2013-07-02 05:24:00,
2013-07-02 00:29:00,64.0,-99.9,0.00,North,0,0.0,0.0,-999,0.00,,,-99.99,,2013-07-02 05:29:00,
2013-07-02 00:34:00,64.0,-99.9,0.00,North,0,0.0,0.0,-999,0.00,,,-99.99,,2013-07-02 05:34:00,
2013-07-02 00:39:00,64.0,-99.9,0.00,North,0,0.0,0.0,-999,0.00,,,-99.99,,2013-07-02 05:39:00,
2013-07-02 00:44:00,64.0,-99.9,0.00,North,0,0.0,0.0,-999,0.00,,,-99.99,,2013-07-02 05:44:00,
2013-07-02 00:49:00,63.0,-99.9,0.00,North,0,0.0,0.0,-999,0.00,,,-99.99,,2013-07-02 05:49:00,
2013-07-02 00:54:00,63.0,-99.9,0.00,North,0,0.0,0.0,-999,0.00,,,-99.99,,2013-07-02 05:54:00,
2013-07-02 00:59:00,63.0,-99.9,0.00,North,0,0.0,0.0,-999,0.00,,,-99.99,,2013-07-02 05:59:00,
2013-07-02 01:04:00,63.0,-99.9,0.00,North,0,0.0,0.0,-999,0.00,,,-99.99,,2013-07-02 06:04:00,
2013-07-02 01:09:00,63.0,-99.9,0.00,North,0,0.0,0.0,-999,0.00,,,-99.99,,2013-07-02 06:09:00,
2013-07-02 01:14:00,63.0,-99.9,0.00,North,0,0.0,0.0,-999,0.00,,,-99.99,,2013-07-02 06:14:00,
2013-07-02 01:19:00,63.0,-99.9,0.00,North,0,0.0,0.0,-999,0.00,,,-99.99,,2013-07-02 06:19:00,
2013-07-02 01:24:00,62.0,-99.9,0.00,North,0,0.0,0.0,-999,0.00,,,-99.99,,2013-07-02 06:24:00,
2013-07-02 01:29:00,59.0,-99.9,0.00,North,0,0.0,0.0,-999,0.00,,,-99.99,,2013-07-02 06:29:00,
2013-07-02 01:34:00,60.0,-99.9,0.00,North,0,0.0,0.0,-999,0.00,,,-99.99,,2013-07-02 06:34:00,
2013-07-02 01:39:00,61.0,-99.9,0.00,North,0,0.0,0.0,-999,0.00,,,-99.99,,2013-07-02 06:39:00,
2013-07-02 01:44:00,62.0,-99.9,0.00,North,0,0.0,0.0,-999,0.00,,,-99.99,,2013-07-02 06:44:00,
2013-07-02 01:49:00,62.0,-99.9,0.00,North,0,0.0,0.0,-999,0.00,,,-99.99,,2013-07-02 06:49:00,
2013-07-02 01:54:00,62.0,-99.9,0.00,North,0,0.0,0.0,-999,0.00,,,-99.99,,2013-07-02 06:54:00,
2013-07-02 01:59:00,62.0,-99.9,0.00,North,0,0.0,0.0,-999,0.00,,,-99.99,,2013-07-02 06:59:00,
2013-07-02 02:04:00,62.0,-99.9,0.00,North,0,0.0,0.0,-999,0.00,,,-99.99,,2013-07-02 07:04:00,
2013-07-02 02:09:00,62.0,-99.9,0.00,North,0,0.0,0.0,-999,0.00,,,-99.99,,2013-07-02 07:09:00,
2013-07-02 02:14:00,62.0,-99.9,0.00,North,0,0.0,0.0,-999,0.00,,,-99.99,,2013-07-02 07:14:00,
2013-07-02 02:19:00,62.0,-99.9,0.00,North,0,0.0,0.0,-999,0.00,,,-99.99,,2013-07-02 07:19:00,
2013-07-02 02:24:00,61.0,-99.9,0.00,North,0,0.0,0.0,-999,0.00,,,-99.99,,2013-07-02 07:24:00,
2013-07-02 02:29:00,62.0,-99.9,0.00,North,0,0.0,0.0,-999,0.00,,,-99.99,,2013-07-02 07:29:00,
2013-07-02 02:34:00,62.0,-99.9,0.00,North,0,0.0,0.0,-999,0.00,,,-99.99,,2013-07-02 07:34:00,
2013-07-02 02:39:00,63.0,-99.9,0.00,North,0,0.0,0.0,-999,0.00,,,-99.99,,2013-07-02 07:39:00,
2013-07-02 02:44:00,63.0,-99.9,0.00,North,0,0.0,0.0,-999,0.00,,,-99.99,,2013-07-02 07:44:00,
2013-07-02 02:49:00,63.0,-99.9,0.00,North,0,0.0,0.0,-999,0.00,,,-99.99,,2013-07-02 07:49:00,
2013-07-02 02:54:00,62.0,-99.9,0.00,North,0,0.0,0.0,-999,0.00,,,-99.99,,2013-07-02 07:54:00,
2013-07-02 02:59:00,62.0,-99.9,0.00,North,0,0.0,0.0,-999,0.00,,,-99.99,,2013-07-02 07:59:00,
2013-07-02 03:04:00,60.0,-99.9,0.00,North,0,0.0,0.0,-999,0.00,,,-99.99,,2013-07-02 08:04:00,
2013-07-02 03:09:00,61.0,-99.9,0.00,North,0,0.0,0.0,-999,0.00,,,-99.99,,2013-07-02 08:09:00,
2013-07-02 03:14:00,61.0,-99.9,0.00,North,0,0.0,0.0,-999,0.00,,,-99.99,,2013-07-02 08:14:00,
2013-07-02 03:19:00,59.0,-99.9,0.00,North,0,0.0,0.0,-999,0.00,,,-99.99,,2013-07-02 08:19:00,
2013-07-02 03:24:00,59.0,-99.9,0.00,North,0,0.0,0.0,-999,0.00,,,-99.99,,2013-07-02 08:24:00,
2013-07-02 03:29:00,59.0,-99.9,0.00,North,0,0.0,0.0,-999,0.00,,,-99.99,,2013-07-02 08:29:00,
2013-07-02 03:34:00,59.0,-99.9,0.00,North,0,0.0,0.0,-999,0.00,,,-99.99,,2013-07-02 08:34:00,
2013-07-02 03:39:00,59.0,-99.9,0.00,North,0,0.0,0.0,-999,0.00,,,-99.99,,2013-07-02 08:39:00,
2013-07-02 03:44:00,58.0,-99.9,0.00,North,0,0.0,0.0,-999,0.00,,,-99.99,,2013-07-02 08:44:00,
2013-07-02 03:49:00,59.0,-99.9,0.00,North,0,0.0,0.0,-999,0.00,,,-99.99,,2013-07-02 08:49:00,
2013-07-02 03:54:00,58.0,-99.9,0.00,North,0,0.0,0.0,-999,0.00,,,-99.99,,2013-07-02 08:54:00,
2013-07-02 03:59:00,58.0,-99.9,0.00,North,0,0.0,0.0,-999,0.00,,,-99.99,,2013-07-02 08:59:00,
2013-07-02 04:04:00,57.0,-99.9,0.00,North,0,0.0,0.0,-999,0.00,,,-99.99,,2013-07-02 09:04:00,
2013-07-02 04:09:00,57.0,-99.9,0.00,WNW,295,6.0,6.0,-999,0.00,,,-99.99,,2013-07-02 09:09:00,
2013-07-02 04:14:00,57.0,-99.9,0.00,WNW,299,6.0,7.0,-999,0.00,,,-99.99,,2013-07-02 09:14:00,
2013-07-02 04:19:00,57.0,-99.9,0.00,WNW,300,6.0,6.0,-999,0.00,,,-99.99,,2013-07-02 09:19:00,
2013-07-02 04:24:00,57.0,-99.9,0.00,WNW,292,6.0,6.0,-999,0.00,,,-99.99,,2013-07-02 09:24:00,
2013-07-02 04:29:00,57.0,-99.9,0.00,WNW,290,5.0,6.0,-999,0.00,,,-99.99,,2013-07-02 09:29:00,
2013-07-02 04:34:00,57.0,-99.9,0.00,WNW,289,5.0,5.0,-999,0.00,,,-99.99,,2013-07-02 09:34:00,
2013-07-02 04:39:00,57.0,-99.9,0.00,WNW,290,5.0,5.0,-999,0.00,,,-99.99,,2013-07-02 09:39:00,
2013-07-02 04:44:00,57.0,-99.9,0.00,WNW,290,5.0,5.0,-999,0.00,,,-99.99,,2013-07-02 09:44:00,
2013-07-02 04:49:00,56.0,-99.9,0.00,WNW,288,6.0,6.0,-999,0.00,,,-99.99,,2013-07-02 09:49:00,
2013-07-02 04:54:00,56.0,-99.9,0.00,WNW,292,5.0,6.0,-999,0.00,,,-99.99,,2013-07-02 09:54:00,
2013-07-02 04:59:00,56.0,-99.9,0.00,WNW,289,6.0,6.0,-999,0.00,,,-99.99,,2013-07-02 09:59:00,
2013-07-02 05:04:00,56.0,-99.9,0.00,WNW,295,6.0,7.0,-999,0.00,,,-99.99,,2013-07-02 10:04:00,
2013-07-02 05:09:00,56.0,-99.9,0.00,WNW,290,6.0,7.0,-999,0.00,,,-99.99,,2013-07-02 10:09:00,
2013-07-02 05:14:00,56.0,-99.9,0.00,WNW,286,6.0,6.0,-999,0.00,,,-99.99,,2013-07-02 10:14:00,
2013-07-02 05:19:00,56.0,-99.9,0.00,WNW,285,6.0,6.0,-999,0.00,,,-99.99,,2013-07-02 10:19:00,
2013-07-02 05:24:00,56.0,-99.9,0.00,WNW,282,6.0,6.0,-999,0.00,,,-99.99,,2013-07-02 10:24:00,
2013-07-02 05:29:00,55.0,-99.9,0.00,WNW,283,7.0,7.0,-999,0.00,,,-99.99,,2013-07-02 10:29:00,
2013-07-02 05:34:00,55.0,-99.9,0.00,WNW,290,7.0,7.0,-999,0.00,,,-99.99,,2013-07-02 10:34:00,
2013-07-02 05:39:00,55.0,-99.9,0.00,WNW,283,7.0,7.0,-999,0.00,,,-99.99,,2013-07-02 10:39:00,
2013-07-02 05:44:00,55.0,-99.9,0.00,WNW,288,7.0,7.0,-999,0.00,,,-99.99,,2013-07-02 10:44:00,
2013-07-02 05:49:00,55.0,-99.9,0.00,WNW,282,7.0,7.0,-999,0.00,,,-99.99,,2013-07-02 10:49:00,
2013-07-02 05:54:00,55.0,-99.9,0.00,WNW,295,6.0,6.0,-999,0.00,,,-99.99,,2013-07-02 10:54:00,
2013-07-02 05:59:00,55.0,-99.9,0.00,WNW,288,7.0,7.0,-999,0.00,,,-99.99,,2013-07-02 10:59:00,
2013-07-02 06:04:00,54.0,-99.9,0.00,WNW,283,7.0,7.0,-999,0.00,,,-99.99,,2013-07-02 11:04:00,
2013-07-02 06:09:00,54.0,-99.9,0.00,West,276,7.0,7.0,-999,0.00,,,-99.99,,2013-07-02 11:09:00,
2013-07-02 06:14:00,55.0,-99.9,0.00,West,281,7.0,7.0,-999,0.00,,,-99.99,,2013-07-02 11:14:00,
2013-07-02 06:19:00,55.0,-99.9,0.00,WNW,296,7.0,8.0,-999,0.00,,,-99.99,,2013-07-02 11:19:00,
2013-07-02 06:24:00,54.0,-99.9,0.00,WNW,292,7.0,7.0,-999,0.00,,,-99.99,,2013-07-02 11:24:00,
2013-07-02 06:29:00,53.0,-99.9,0.00,WNW,286,5.0,6.0,-999,0.00,,,-99.99,,2013-07-02 11:29:00,
2013-07-02 06:34:00,55.0,-99.9,0.00,WNW,296,5.0,5.0,-999,0.00,,,-99.99,,2013-07-02 11:34:00,
2013-07-02 06:39:00,55.0,-99.9,0.00,WNW,292,4.0,4.0,-999,0.00,,,-99.99,,2013-07-02 11:39:00,
2013-07-02 06:44:00,55.0,-99.9,0.00,WNW,286,4.0,5.0,-999,0.00,,,-99.99,,2013-07-02 11:44:00,
2013-07-02 06:49:00,55.0,-99.9,0.00,WNW,283,5.0,5.0,-999,0.00,,,-99.99,,2013-07-02 11:49:00,
2013-07-02 06:54:00,54.0,-99.9,0.00,WNW,282,5.0,6.0,-999,0.00,,,-99.99,,2013-07-02 11:54:00,
2013-07-02 06:59:00,54.0,-99.9,0.00,West,274,5.0,5.0,-999,0.00,,,-99.99,,2013-07-02 11:59:00,
2013-07-02 07:04:00,54.0,-99.9,0.00,West,272,6.0,7.0,-999,0.00,,,-99.99,,2013-07-02 12:04:00,
2013-07-02 07:09:00,55.0,-99.9,0.00,West,278,7.0,7.0,-999,0.00,,,-99.99,,2013-07-02 12:09:00,
2013-07-02 07:14:00,55.0,-99.9,0.00,West,275,7.0,8.0,-999,0.00,,,-99.99,,2013-07-02 12:14:00,
2013-07-02 07:19:00,55.0,-99.9,0.00,West,275,7.0,7.0,-999,0.00,,,-99.99,,2013-07-02 12:19:00,
2013-07-02 07:24:00,55.0,-99.9,0.00,WNW,283,7.0,7.0,-999,0.00,,,-99.99,,2013-07-02 12:24:00,
2013-07-02 07:29:00,54.0,-99.9,0.00,West,279,6.0,7.0,-999,0.00,,,-99.99,,2013-07-02 12:29:00,
2013-07-02 07:34:00,54.0,-99.9,0.00,West,281,6.0,7.0,-999,0.00,,,-99.99,,2013-07-02 12:34:00,
2013-07-02 07:39:00,55.0,-99.9,0.00,West,271,6.0,7.0,-999,0.00,,,-99.99,,2013-07-02 12:39:00,
2013-07-02 07:44:00,57.0,-99.9,0.00,West,274,6.0,6.0,-999,0.00,,,-99.99,,2013-07-02 12:44:00,
2013-07-02 07:49:00,58.0,-99.9,0.00,WSW,252,4.0,5.0,-999,0.00,,,-99.99,,2013-07-02 12:49:00,
2013-07-02 07:54:00,59.0,-99.9,0.00,West,268,4.0,5.0,-999,0.00,,,-99.99,,2013-07-02 12:54:00,
2013-07-02 07:59:00,59.0,-99.9,0.00,WNW,288,3.0,4.0,-999,0.00,,,-99.99,,2013-07-02 12:59:00,
2013-07-02 08:04:00,60.0,-99.9,0.00,West,271,4.0,5.0,-999,0.00,,,-99.99,,2013-07-02 13:04:00,
2013-07-02 08:09:00,61.0,-99.9,0.00,WNW,283,6.0,6.0,-999,0.00,,,-99.99,,2013-07-02 13:09:00,
2013-07-02 08:14:00,61.0,-99.9,0.00,WNW,286,6.0,7.0,-999,0.00,,,-99.99,,2013-07-02 13:14:00,
2013-07-02 08:19:00,61.0,-99.9,0.00,WNW,288,6.0,7.0,-999,0.00,,,-99.99,,2013-07-02 13:19:00,
2013-07-02 08:24:00,62.0,-99.9,0.00,WNW,283,6.0,6.0,-999,0.00,,,-99.99,,2013-07-02 13:24:00,
2013-07-02 08:29:00,63.0,-99.9,0.00,West,278,6.0,6.0,-999,0.00,,,-99.99,,2013-07-02 13:29:00,
2013-07-02 08:34:00,64.0,-99.9,0.00,West,275,6.0,7.0,-999,0.00,,,-99.99,,2013-07-02 13:34:00,
2013-07-02 08:39:00,64.0,-99.9,0.00,West,276,6.0,6.0,-999,0.00,,,-99.99,,2013-07-02 13:39:00,
2013-07-02 08:44:00,65.0,-99.9,0.00,WNW,299,5.0,5.0,-999,0.00,,,-99.99,,2013-07-02 13:44:00,
2013-07-02 08:49:00,65.0,-99.9,0.00,WNW,303,5.0,6.0,-999,0.00,,,-99.99,,2013-07-02 13:49:00,
2013-07-02 08:54:00,66.0,-99.9,0.00,NW,306,5.0,6.0,-999,0.00,,,-99.99,,2013-07-02 13:54:00,
2013-07-02 08:59:00,68.0,-99.9,0.00,WNW,285,5.0,6.0,-999,0.00,,,-99.99,,2013-07-02 13:59:00,
2013-07-02 09:04:00,68.0,-99.9,0.00,WNW,283,6.0,7.0,-999,0.00,,,-99.99,,2013-07-02 14:04:00,
2013-07-02 09:09:00,68.0,-99.9,0.00,WNW,283,5.0,7.0,-999,0.00,,,-99.99,,2013-07-02 14:09:00,
2013-07-02 09:14:00,68.0,-99.9,0.00,NW,309,6.0,7.0,-999,0.00,,,-99.99,,2013-07-02 14:14:00,
2013-07-02 09:19:00,68.0,-99.9,0.00,NW,316,6.0,7.0,-999,0.00,,,-99.99,,2013-07-02 14:19:00,
2013-07-02 09:24:00,70.0,-99.9,0.00,WNW,296,6.0,7.0,-999,0.00,,,-99.99,,2013-07-02 14:24:00,
2013-07-02 09:29:00,70.0,-99.9,0.00,West,265,4.0,6.0,-999,0.00,,,-99.99,,2013-07-02 14:29:00,
2013-07-02 09:34:00,71.0,-99.9,0.00,West,274,5.0,6.0,-999,0.00,,,-99.99,,2013-07-02 14:34:00,
2013-07-02 09:39:00,71.0,-99.9,0.00,WNW,283,4.0,7.0,-999,0.00,,,-99.99,,2013-07-02 14:39:00,
2013-07-02 09:44:00,72.0,-99.9,0.00,WNW,290,5.0,7.0,-999,0.00,,,-99.99,,2013-07-02 14:44:00,
2013-07-02 09:49:00,72.0,-99.9,0.00,West,272,4.0,6.0,-999,0.00,,,-99.99,,2013-07-02 14:49:00,
2013-07-02 09:59:00,73.0,-99.9,0.00,NW,314,3.0,7.0,-999,0.00,,,-99.99,,2013-07-02 14:59:00,
2013-07-02 10:09:00,72.0,-99.9,0.00,WNW,285,1.0,4.0,-999,0.00,,,-99.99,,2013-07-02 15:09:00,
2013-07-02 10:14:00,74.0,-99.9,0.00,WNW,299,4.0,5.0,-999,0.00,,,-99.99,,2013-07-02 15:14:00,
2013-07-02 10:19:00,74.0,-99.9,0.00,NW,316,4.0,5.0,-999,0.00,,,-99.99,,2013-07-02 15:19:00,
2013-07-02 10:24:00,74.0,-99.9,0.00,East,80,4.0,6.0,-999,0.00,,,-99.99,,2013-07-02 15:24:00,
2013-07-02 10:29:00,74.0,-99.9,0.00,ENE,63,6.0,7.0,-999,0.00,,,-99.99,,2013-07-02 15:29:00,
2013-07-02 10:34:00,74.0,-99.9,0.00,East,80,7.0,8.0,-999,0.00,,,-99.99,,2013-07-02 15:34:00,
2013-07-02 10:39:00,74.0,-99.9,0.00,ENE,78,7.0,11.0,-999,0.00,,,-99.99,,2013-07-02 15:39:00,
2013-07-02 10:44:00,74.0,-99.9,0.00,North,0,0.0,0.0,-999,0.00,,,-99.99,,2013-07-02 15:44:00,
2013-07-02 10:49:00,75.0,-99.9,0.00,NNE,31,6.0,8.0,-999,0.00,,,-99.99,,2013-07-02 15:49:00,
2013-07-02 10:54:00,76.0,-99.9,0.00,NNE,14,6.0,7.0,-999,0.00,,,-99.99,,2013-07-02 15:54:00,
2013-07-02 10:59:00,76.0,-99.9,0.00,North,6,4.0,5.0,-999,0.00,,,-99.99,,2013-07-02 15:59:00,
2013-07-02 11:04:00,77.0,-99.9,0.00,ENE,75,2.0,4.0,-999,0.00,,,-99.99,,2013-07-02 16:04:00,
2013-07-02 11:09:00,75.0,-99.9,0.00,NNE,30,3.0,6.0,-999,0.00,,,-99.99,,2013-07-02 16:09:00,
2013-07-02 11:14:00,75.0,-99.9,0.00,WSW,244,5.0,8.0,-999,0.00,,,-99.99,,2013-07-02 16:14:00,
2013-07-02 11:19:00,76.0,-99.9,0.00,ESE,111,5.0,8.0,-999,0.00,,,-99.99,,2013-07-02 16:19:00,
2013-07-02 11:24:00,76.0,-99.9,0.00,SSE,149,8.0,10.0,-999,0.00,,,-99.99,,2013-07-02 16:24:00,
2013-07-02 11:29:00,76.0,-99.9,0.00,SSE,155,8.0,10.0,-999,0.00,,,-99.99,,2013-07-02 16:29:00,
2013-07-02 11:34:00,75.0,-99.9,0.00,East,87,5.0,8.0,-999,0.00,,,-99.99,,2013-07-02 16:34:00,
2013-07-02 11:39:00,77.0,-99.9,0.00,SE,127,7.0,9.0,-999,0.00,,,-99.99,,2013-07-02 16:39:00,
2013-07-02 11:44:00,75.0,-99.9,0.00,ESE,113,8.0,10.0,-999,0.00,,,-99.99,,2013-07-02 16:44:00,
2013-07-02 11:49:00,77.0,-99.9,0.00,SE,141,6.0,8.0,-999,0.00,,,-99.99,,2013-07-02 16:49:00,
2013-07-02 11:54:00,78.0,-99.9,0.00,SE,125,7.0,11.0,-999,0.00,,,-99.99,,2013-07-02 16:54:00,
2013-07-02 11:59:00,77.0,-99.9,0.00,ESE,121,7.0,10.0,-999,0.00,,,-99.99,,2013-07-02 16:59:00,
2013-07-02 12:04:00,77.0,-99.9,0.00,ESE,104,5.0,7.0,-999,0.00,,,-99.99,,2013-07-02 17:04:00,
2013-07-02 12:09:00,75.0,-99.9,0.00,ESE,106,7.0,8.0,-999,0.00,,,-99.99,,2013-07-02 17:09:00,
2013-07-02 12:14:00,76.0,-99.9,0.00,East,99,3.0,6.0,-999,0.00,,,-99.99,,2013-07-02 17:14:00,
2013-07-02 12:19:00,78.0,-99.9,0.00,SSE,152,4.0,6.0,-999,0.00,,,-99.99,,2013-07-02 17:19:00,
2013-07-02 12:24:00,77.0,-99.9,0.00,WNW,283,5.0,6.0,-999,0.00,,,-99.99,,2013-07-02 17:24:00,
2013-07-02 12:29:00,78.0,-99.9,0.00,NW,314,4.0,6.0,-999,0.00,,,-99.99,,2013-07-02 17:29:00,
2013-07-02 12:34:00,78.0,-99.9,0.00,ENE,66,9.0,13.0,-999,0.00,,,-99.99,,2013-07-02 17:34:00,
2013-07-02 12:39:00,78.0,-99.9,0.00,East,89,11.0,13.0,-999,0.00,,,-99.99,,2013-07-02 17:39:00,
2013-07-02 12:44:00,77.0,-99.9,0.00,ENE,73,9.0,12.0,-999,0.00,,,-99.99,,2013-07-02 17:44:00,
2013-07-02 12:49:00,78.0,-99.9,0.00,SE,128,7.0,8.0,-999,0.00,,,-99.99,,2013-07-02 17:49:00,
2013-07-02 12:54:00,78.0,-99.9,0.00,West,261,2.0,4.0,-999,0.00,,,-99.99,,2013-07-02 17:54:00,
2013-07-02 12:59:00,78.0,-99.9,0.00,ESE,118,7.0,10.0,-999,0.00,,,-99.99,,2013-07-02 17:59:00,
2013-07-02 13:04:00,78.0,-99.9,0.00,East,79,8.0,11.0,-999,0.00,,,-99.99,,2013-07-02 18:04:00,
2013-07-02 13:09:00,79.0,-99.9,0.00,NE,56,8.0,9.0,-999,0.00,,,-99.99,,2013-07-02 18:09:00,
2013-07-02 13:14:00,78.0,-99.9,0.00,ENE,65,6.0,10.0,-999,0.00,,,-99.99,,2013-07-02 18:14:00,
2013-07-02 13:19:00,79.0,-99.9,0.00,North,7,6.0,8.0,-999,0.00,,,-99.99,,2013-07-02 18:19:00,
2013-07-02 13:24:00,79.0,-99.9,0.00,ENE,63,3.0,5.0,-999,0.00,,,-99.99,,2013-07-02 18:24:00,
2013-07-02 13:29:00,78.0,-99.9,0.00,North,0,0.0,0.0,-999,0.00,,,-99.99,,2013-07-02 18:29:00,
2013-07-02 13:39:00,80.0,-99.9,0.00,North,8,7.0,10.0,-999,0.00,,,-99.99,,2013-07-02 18:39:00,
2013-07-02 13:49:00,80.0,-99.9,0.00,SSE,154,4.0,7.0,-999,0.00,,,-99.99,,2013-07-02 18:49:00,
2013-07-02 13:54:00,79.0,-99.9,0.00,ESE,117,8.0,10.0,-999,0.00,,,-99.99,,2013-07-02 18:54:00,
2013-07-02 13:59:00,79.0,-99.9,0.00,South,185,9.0,10.0,-999,0.00,,,-99.99,,2013-07-02 18:59:00,
2013-07-02 14:04:00,79.0,-99.9,0.00,SE,140,6.0,9.0,-999,0.00,,,-99.99,,2013-07-02 19:04:00,
2013-07-02 14:09:00,79.0,-99.9,0.00,SE,145,5.0,7.0,-999,0.00,,,-99.99,,2013-07-02 19:09:00,
2013-07-02 14:14:00,80.0,-99.9,0.00,NNE,28,1.0,5.0,-999,0.00,,,-99.99,,2013-07-02 19:14:00,
2013-07-02 14:19:00,80.0,-99.9,0.00,ESE,118,8.0,10.0,-999,0.00,,,-99.99,,2013-07-02 19:19:00,
2013-07-02 14:24:00,81.0,-99.9,0.00,ESE,111,11.0,13.0,-999,0.00,,,-99.99,,2013-07-02 19:24:00,
2013-07-02 14:29:00,80.0,-99.9,0.00,ESE,104,12.0,14.0,-999,0.00,,,-99.99,,2013-07-02 19:29:00,
2013-07-02 14:34:00,80.0,-99.9,0.00,ESE,123,9.0,12.0,-999,0.00,,,-99.99,,2013-07-02 19:34:00,
2013-07-02 14:39:00,81.0,-99.9,0.00,SW,219,8.0,10.0,-999,0.00,,,-99.99,,2013-07-02 19:39:00,
2013-07-02 14:44:00,80.0,-99.9,0.00,WNW,288,8.0,10.0,-999,0.00,,,-99.99,,2013-07-02 19:44:00,
2013-07-02 14:49:00,79.0,-99.9,0.00,WSW,257,6.0,7.0,-999,0.00,,,-99.99,,2013-07-02 19:49:00,
2013-07-02 14:54:00,79.0,-99.9,0.00,WSW,254,6.0,8.0,-999,0.00,,,-99.99,,2013-07-02 19:54:00,
2013-07-02 15:04:00,80.0,-99.9,0.00,NE,55,9.0,12.0,-999,0.00,,,-99.99,,2013-07-02 20:04:00,
2013-07-02 15:09:00,81.0,-99.9,0.00,NE,48,9.0,12.0,-999,0.00,,,-99.99,,2013-07-02 20:09:00,
2013-07-02 15:14:00,81.0,-99.9,0.00,NNE,32,8.0,11.0,-999,0.00,,,-99.99,,2013-07-02 20:14:00,
2013-07-02 15:19:00,80.0,-99.9,0.00,East,92,10.0,14.0,-999,0.00,,,-99.99,,2013-07-02 20:19:00,
2013-07-02 15:24:00,81.0,-99.9,0.00,ESE,111,5.0,7.0,-999,0.00,,,-99.99,,2013-07-02 20:24:00,
2013-07-02 15:29:00,81.0,-99.9,0.00,SE,145,6.0,9.0,-999,0.00,,,-99.99,,2013-07-02 20:29:00,
2013-07-02 15:34:00,83.0,-99.9,0.00,East,90,7.0,9.0,-999,0.00,,,-99.99,,2013-07-02 20:34:00,
2013-07-02 15:39:00,82.0,-99.9,0.00,North,10,7.0,9.0,-999,0.00,,,-99.99,,2013-07-02 20:39:00,
2013-07-02 15:44:00,82.0,-99.9,0.00,NNW,330,6.0,9.0,-999,0.00,,,-99.99,,2013-07-02 20:44:00,
2013-07-02 15:49:00,83.0,-99.9,0.00,North,4,7.0,9.0,-999,0.00,,,-99.99,,2013-07-02 20:49:00,
2013-07-02 15:54:00,83.0,-99.9,0.00,NNW,340,9.0,11.0,-999,0.00,,,-99.99,,2013-07-02 20:54:00,
2013-07-02 15:59:00,81.0,-99.9,0.00,North,8,6.0,9.0,-999,0.00,,,-99.99,,2013-07-02 20:59:00,
2013-07-02 16:04:00,82.0,-99.9,0.00,NW,319,4.0,7.0,-999,0.00,,,-99.99,,2013-07-02 21:04:00,
2013-07-02 16:09:00,81.0,-99.9,0.00,NNW,333,7.0,10.0,-999,0.00,,,-99.99,,2013-07-02 21:09:00,
2013-07-02 16:14:00,81.0,-99.9,0.00,ENE,65,6.0,7.0,-999,0.00,,,-99.99,,2013-07-02 21:14:00,
2013-07-02 16:19:00,80.0,-99.9,0.00,ENE,59,6.0,9.0,-999,0.00,,,-99.99,,2013-07-02 21:19:00,
2013-07-02 16:24:00,82.0,-99.9,0.00,ENE,78,6.0,9.0,-999,0.00,,,-99.99,,2013-07-02 21:24:00,
2013-07-02 16:29:00,80.0,-99.9,0.00,East,92,11.0,14.0,-999,0.00,,,-99.99,,2013-07-02 21:29:00,
2013-07-02 16:34:00,80.0,-99.9,0.00,East,86,12.0,13.0,-999,0.00,,,-99.99,,2013-07-02 21:34:00,
2013-07-02 16:39:00,80.0,-99.9,0.00,East,86,8.0,11.0,-999,0.00,,,-99.99,,2013-07-02 21:39:00,
2013-07-02 16:44:00,82.0,-99.9,0.00,North,0,0.0,0.0,-999,0.00,,,-99.99,,2013-07-02 21:44:00,
2013-07-02 16:49:00,81.0,-99.9,0.00,ESE,106,1.0,4.0,-999,0.00,,,-99.99,,2013-07-02 21:49:00,
2013-07-02 16:54:00,82.0,-99.9,0.00,North,0,0.0,0.0,-999,0.00,,,-99.99,,2013-07-02 21:54:00,
2013-07-02 16:59:00,84.0,-99.9,0.00,North,0,0.0,0.0,-999,0.00,,,-99.99,,2013-07-02 21:59:00,
2013-07-02 17:04:00,83.0,-99.9,0.00,NNE,14,6.0,7.0,-999,0.00,,,-99.99,,2013-07-02 22:04:00,
2013-07-02 17:09:00,84.0,-99.9,0.00,NNE,16,4.0,5.0,-999,0.00,,,-99.99,,2013-07-02 22:09:00,
2013-07-02 17:14:00,83.0,-99.9,0.00,ESE,102,8.0,13.0,-999,0.00,,,-99.99,,2013-07-02 22:14:00,
2013-07-02 17:19:00,83.0,-99.9,0.00,SE,134,7.0,9.0,-999,0.00,,,-99.99,,2013-07-02 22:19:00,
2013-07-02 17:24:00,82.0,-99.9,0.00,ESE,113,8.0,12.0,-999,0.00,,,-99.99,,2013-07-02 22:24:00,
2013-07-02 17:29:00,82.0,-99.9,0.00,East,92,9.0,11.0,-999,0.00,,,-99.99,,2013-07-02 22:29:00,
2013-07-02 17:34:00,82.0,-99.9,0.00,East,82,10.0,11.0,-999,0.00,,,-99.99,,2013-07-02 22:34:00,
2013-07-02 17:39:00,81.0,-99.9,0.00,ESE,103,8.0,9.0,-999,0.00,,,-99.99,,2013-07-02 22:39:00,
2013-07-02 17:44:00,82.0,-99.9,0.00,NE,38,7.0,10.0,-999,0.00,,,-99.99,,2013-07-02 22:44:00,
2013-07-02 17:49:00,82.0,-99.9,0.00,NE,48,5.0,6.0,-999,0.00,,,-99.99,,2013-07-02 22:49:00,
2013-07-02 17:54:00,82.0,-99.9,0.00,East,87,7.0,8.0,-999,0.00,,,-99.99,,2013-07-02 22:54:00,
2013-07-02 17:59:00,81.0,-99.9,0.00,NE,52,6.0,8.0,-999,0.00,,,-99.99,,2013-07-02 22:59:00,
2013-07-02 18:04:00,81.0,-99.9,0.00,ESE,111,7.0,8.0,-999,0.00,,,-99.99,,2013-07-02 23:04:00,
2013-07-02 18:09:00,81.0,-99.9,0.00,ESE,118,6.0,8.0,-999,0.00,,,-99.99,,2013-07-02 23:09:00,
2013-07-02 18:14:00,81.0,-99.9,0.00,South,183,4.0,5.0,-999,0.00,,,-99.99,,2013-07-02 23:14:00,
2013-07-02 18:19:00,82.0,-99.9,0.00,North,7,4.0,8.0,-999,0.00,,,-99.99,,2013-07-02 23:19:00,
2013-07-02 18:24:00,82.0,-99.9,0.00,NE,52,4.0,7.0,-999,0.00,,,-99.99,,2013-07-02 23:24:00,
2013-07-02 18:29:00,81.0,-99.9,0.00,North,0,0.0,0.0,-999,0.00,,,-99.99,,2013-07-02 23:29:00,
2013-07-02 18:34:00,82.0,-99.9,0.00,North,0,0.0,0.0,-999,0.00,,,-99.99,,2013-07-02 23:34:00,
2013-07-02 18:39:00,82.0,-99.9,0.00,North,0,0.0,0.0,-999,0.00,,,-99.99,,2013-07-02 23:39:00,
2013-07-02 18:44:00,82.0,-99.9,0.00,North,0,0.0,0.0,-999,0.00,,,-99.99,,2013-07-02 23:44:00,
2013-07-02 18:49:00,83.0,-99.9,0.00,North,0,0.0,0.0,-999,0.00,,,-99.99,,2013-07-02 23:49:00,
2013-07-02 18:54:00,82.0,-99.9,0.00,North,0,0.0,0.0,-999,0.00,,,-99.99,,2013-07-02 23:54:00,
2013-07-02 18:59:00,82.0,-99.9,0.00,North,0,0.0,0.0,-999,0.00,,,-99.99,,2013-07-02 23:59:00,
2013-07-02 19:04:00,81.0,-99.9,0.00,ENE,63,6.0,7.0,-999,0.00,,,-99.99,,2013-07-03 00:04:00,
2013-07-02 19:09:00,81.0,-99.9,0.00,ENE,66,5.0,6.0,-999,0.00,,,-99.99,,2013-07-03 00:09:00,
2013-07-02 19:14:00,81.0,-99.9,0.00,NE,55,4.0,5.0,-999,0.00,,,-99.99,,2013-07-03 00:14:00,
2013-07-02 19:19:00,82.0,-99.9,0.00,North,0,0.0,0.0,-999,0.00,,,-99.99,,2013-07-03 00:19:00,
2013-07-02 19:24:00,82.0,-99.9,0.00,North,0,0.0,0.0,-999,0.00,,,-99.99,,2013-07-03 00:24:00,
2013-07-02 19:29:00,81.0,-99.9,0.00,North,0,0.0,0.0,-999,0.00,,,-99.99,,2013-07-03 00:29:00,
2013-07-02 19:34:00,81.0,-99.9,0.00,East,85,8.0,10.0,-999,0.00,,,-99.99,,2013-07-03 00:34:00,
2013-07-02 19:39:00,81.0,-99.9,0.00,East,100,9.0,11.0,-999,0.00,,,-99.99,,2013-07-03 00:39:00,
2013-07-02 19:44:00,80.0,-99.9,0.00,SE,125,7.0,10.0,-999,0.00,,,-99.99,,2013-07-03 00:44:00,
2013-07-02 19:49:00,80.0,-99.9,0.00,ESE,110,8.0,9.0,-999,0.00,,,-99.99,,2013-07-03 00:49:00,
2013-07-02 19:54:00,81.0,-99.9,0.00,ENE,76,8.0,9.0,-999,0.00,,,-99.99,,2013-07-03 00:54:00,
2013-07-02 19:59:00,80.0,-99.9,0.00,East,85,8.0,9.0,-999,0.00,,,-99.99,,2013-07-03 00:59:00,
2013-07-02 20:04:00,80.0,-99.9,0.00,East,82,6.0,7.0,-999,0.00,,,-99.99,,2013-07-03 01:04:00,
2013-07-02 20:09:00,79.0,-99.9,0.00,East,99,6.0,6.0,-999,0.00,,,-99.99,,2013-07-03 01:09:00,
2013-07-02 20:14:00,79.0,-99.9,0.00,East,94,5.0,6.0,-999,0.00,,,-99.99,,2013-07-03 01:14:00,
2013-07-02 20:19:00,78.0,-99.9,0.00,East,97,6.0,7.0,-999,0.00,,,-99.99,,2013-07-03 01:19:00,
2013-07-02 20:24:00,78.0,-99.9,0.00,East,99,6.0,7.0,-999,0.00,,,-99.99,,2013-07-03 01:24:00,
2013-07-02 20:29:00,78.0,-99.9,0.00,East,87,7.0,7.0,-999,0.00,,,-99.99,,2013-07-03 01:29:00,
2013-07-02 20:34:00,77.0,-99.9,0.00,East,94,6.0,6.0,-999,0.00,,,-99.99,,2013-07-03 01:34:00,
2013-07-02 20:39:00,76.0,-99.9,0.00,East,87,5.0,5.0,-999,0.00,,,-99.99,,2013-07-03 01:39:00,
2013-07-02 20:44:00,76.0,-99.9,0.00,East,82,6.0,7.0,-999,0.00,,,-99.99,,2013-07-03 01:44:00,
2013-07-02 20:49:00,76.0,-99.9,0.00,East,86,6.0,6.0,-999,0.00,,,-99.99,,2013-07-03 01:49:00,
2013-07-02 21:04:00,74.0,-99.9,0.00,ENE,71,8.0,10.0,-999,0.00,,,-99.99,,2013-07-03 02:04:00,
2013-07-02 21:14:00,73.0,-99.9,0.00,ENE,73,7.0,8.0,-999,0.00,,,-99.99,,2013-07-03 02:14:00,
2013-07-02 21:19:00,73.0,-99.9,0.00,East,92,7.0,9.0,-999,0.00,,,-99.99,,2013-07-03 02:19:00,
2013-07-02 21:24:00,72.0,-99.9,0.00,East,87,7.0,9.0,-999,0.00,,,-99.99,,2013-07-03 02:24:00,
2013-07-02 21:34:00,72.0,-99.9,0.00,ESE,102,8.0,8.0,-999,0.00,,,-99.99,,2013-07-03 02:34:00,
2013-07-02 21:44:00,71.0,-99.9,0.00,ESE,116,7.0,8.0,-999,0.00,,,-99.99,,2013-07-03 02:44:00,
2013-07-02 21:54:00,71.0,-99.9,0.00,ESE,102,8.0,9.0,-999,0.00,,,-99.99,,2013-07-03 02:54:00,
2013-07-02 21:59:00,71.0,-99.9,0.00,East,97,8.0,10.0,-999,0.00,,,-99.99,,2013-07-03 02:59:00,
2013-07-02 22:04:00,70.0,-99.9,0.00,East,100,8.0,9.0,-999,0.00,,,-99.99,,2013-07-03 03:04:00,
2013-07-02 22:14:00,69.0,-99.9,0.00,ESE,104,7.0,8.0,-999,0.00,,,-99.99,,2013-07-03 03:14:00,
2013-07-02 22:19:00,69.0,-99.9,0.00,ESE,106,8.0,9.0,-999,0.00,,,-99.99,,2013-07-03 03:19:00,
2013-07-02 22:24:00,69.0,-99.9,0.00,ESE,111,8.0,9.0,-999,0.00,,,-99.99,,2013-07-03 03:24:00,
2013-07-02 22:29:00,69.0,-99.9,0.00,ESE,120,7.0,9.0,-999,0.00,,,-99.99,,2013-07-03 03:29:00,
2013-07-02 22:39:00,67.0,-99.9,0.00,ESE,120,6.0,7.0,-999,0.00,,,-99.99,,2013-07-03 03:39:00,
2013-07-02 22:49:00,66.0,-99.9,0.00,North,0,0.0,0.0,-999,0.00,,,-99.99,,2013-07-03 03:49:00,
2013-07-02 22:59:00,67.0,-99.9,0.00,East,96,7.0,9.0,-999,0.00,,,-99.99,,2013-07-03 03:59:00,
2013-07-02 23:04:00,68.0,-99.9,0.00,East,99,8.0,11.0,-999,0.00,,,-99.99,,2013-07-03 04:04:00,
2013-07-02 23:09:00,67.0,-99.9,0.00,ESE,121,8.0,10.0,-999,0.00,,,-99.99,,2013-07-03 04:09:00,
2013-07-02 23:14:00,66.0,-99.9,0.00,ESE,121,7.0,9.0,-999,0.00,,,-99.99,,2013-07-03 04:14:00,
2013-07-02 23:19:00,66.0,-99.9,0.00,ESE,110,8.0,9.0,-999,0.00,,,-99.99,,2013-07-03 04:19:00,
2013-07-02 23:24:00,67.0,-99.9,0.00,ESE,114,8.0,10.0,-999,0.00,,,-99.99,,2013-07-03 04:24:00,
2013-07-02 23:29:00,66.0,-99.9,0.00,ESE,110,9.0,11.0,-999,0.00,,,-99.99,,2013-07-03 04:29:00,
2013-07-02 23:34:00,65.0,-99.9,0.00,ESE,117,9.0,11.0,-999,0.00,,,-99.99,,2013-07-03 04:34:00,
2013-07-02 23:39:00,65.0,-99.9,0.00,ESE,118,9.0,10.0,-999,0.00,,,-99.99,,2013-07-03 04:39:00,
2013-07-02 23:44:00,65.0,-99.9,0.00,ESE,116,9.0,11.0,-999,0.00,,,-99.99,,2013-07-03 04:44:00,
2013-07-02 23:49:00,65.0,-99.9,0.00,ESE,120,9.0,11.0,-999,0.00,,,-99.99,,2013-07-03 04:49:00,
2013-07-02 23:54:00,65.0,-99.9,0.00,ESE,111,9.0,11.0,-999,0.00,,,-99.99,,2013-07-03 04:54:00,
2013-07-02 23:59:00,66.0,-99.9,0.00,SE,124,10.0,12.0,-999,0.00,,,-99.99,,2013-07-03 04:59:00,